Regional Weather Roundup
Issued by NWS

Home | Current Version | Previous Version | Text Only | Print | Product List | Glossary Off
Versions: 1 2 3 4 5 6 7 8 9 10 11 12 13 14 15 16 17 18 19 20 21 22 23 24 25 26 27 28 29 30 31 32 33 34 35 36 37 38 39 40 41 42 43 44 45 46 47 48 49 50

000
ASUS43 KLMK 191602
RWRKY
KENTUCKY REGIONAL WEATHER ROUNDUP
NATIONAL WEATHER SERVICE LOUISVILLE KY
1200 PM EDT THU APR 19 2018

NOTE "FAIR" INDICATES FEW OR NO CLOUDS BELOW 12,000 FEET
WITH NO SIGNIFICANT WEATHER AND/OR OBSTRUCTIONS TO VISIBILITY.

KYZ001>023-026-027-061>063-070>075-191700-
WESTERN AND SOUTH CENTRAL KENTUCKY

CITY           SKY/WX    TMP DP  RH WIND       PRES   REMARKS
PADUCAH        CLOUDY    45  26  47 N12G22    30.34R
HENDERSON      CLOUDY    42  31  64 N8        30.33R
OWENSBORO      CLOUDY    42  31  64 NW14G21   30.31R
HOPKINSVILLE   NOT AVBL
BOWLING GREEN  PTSUNNY   46  28  49 N12G17    30.29R
GLASGOW        NOT AVBL
$$

KYZ024-025-028>034-038-045-046-053-191700-
NORTH CENTRAL KENTUCKY

CITY           SKY/WX    TMP DP  RH WIND       PRES   REMARKS
LOUISVILLE/SDF PTSUNNY   46  31  55 N13G23    30.25R
LOUISVILLE/LOU CLOUDY    44  32  62 NW12G18   30.26R
FORT KNOX      NOT AVBL
$$

KYZ035>037-039>044-047>052-055>060-089>105-191700-
NORTHEAST KENTUCKY

CITY           SKY/WX    TMP DP  RH WIND       PRES   REMARKS
LEXINGTON      CLOUDY    42  31  64 W14G20    30.21R
COVINGTON      CLOUDY    41  32  70 NW13      30.21R
FRANKFORT      CLOUDY    42  30  62 NW12      30.22R
$$

KYZ054-064>069-076>088-106>120-191700-
SOUTHEAST KENTUCKY

CITY           SKY/WX    TMP DP  RH WIND       PRES   REMARKS
JACKSON        CLOUDY    40  27  59 W6G23     30.16R
LONDON         CLOUDY    43  28  55 NW12G22   30.19R
SOMERSET       NOT AVBL
MIDDLESBORO    CLOUDY    43  28  55 W12       30.19R
MONTICELLO     PTSUNNY   44  28  53 N21G29    30.24
$$




USA.gov is the U.S. government's official web portal to all federal, state and local government web resources and services.